Vienna, OH

4:52 PM EST on February 07, 2016 (GMT -0500)
Youngstown-Warren Regional

Weather History for KYNG - March, 2013

Change the Weather History Date:

Sunday, March 24, 2013

  Actual Average Record
Temperature  
Mean Temperature 29 °F 40 °F  
Max Temperature 37 °F 49 °F 72 °F (1994)
Min Temperature 20 °F 30 °F 9 °F (1940)
Degree Days  
Heating Degree Days 36 25  
Month to date heating degree days 788 711  
Since 1 July heating degree days 5230 5359  
Cooling Degree Days 0 0  
Month to date cooling degree days 0 0  
Year to date cooling degree days 0 0  
Moisture  
Dew Point 20 °F    
Average Humidity 72    
Maximum Humidity 92    
Minimum Humidity 52    
Precipitation  
Precipitation T in 0.10 in 0.59 in (1953)
Month to date precipitation 1.99 2.20  
Year to date precipitation 6.29 6.90  
Snow  
Snow 0.00 in 0.30 in - ()
Month to date snowfall 13.2 9.1  
Since 1 July snowfall 73.6 57.9  
Snow Depth 0.00 in    
Sea Level Pressure  
Sea Level Pressure 29.82 in    
Wind  
Wind Speed 9 mph (ENE)    
Max Wind Speed 21 mph    
Max Gust Speed 29 mph    
Visibility 10 miles    
Events      
T = Trace of Precipitation, MM = Missing Value Source: NWS Daily Summary

Daily Weather History Graph

Daily Weather History Graph

Search for Another Location

Airport or City:

Trip Planner

Search our weather history database for the weather conditions in past years. The results will help you decide how hot, cold, wet, or windy it might be!

Date:

Astronomy

Mar. 24, 2013 Rise Set
Actual Time 7:18 AM EDT 7:39 PM EDT
Civil Twilight 6:51 AM EDT 8:07 PM EDT
Nautical Twilight 6:18 AM EDT 8:39 PM EDT
Astronomical Twilight 5:45 AM EDT 9:12 PM EDT
Moon 5:04 PM EDT (3/24) 5:29 AM EDT (3/24)
Length of Visible Light 13h 15m
Length of Day
12h 20m
Waxing Gibbous, 91% of the Moon is Illuminated
Mar 24
Waxing Gibbous
Mar 27
Full
Apr 3
Last Quarter
Apr 10
New
Apr 18
First Quarter

Hourly Weather History & Observations

Time (EDT) Temp. Windchill Dew Point Humidity Pressure Visibility Wind Dir Wind Speed Gust Speed Precip Events Conditions
12:51 AM 25.0 °F 18.1 °F 19.0 °F 78% 30.02 in 10.0 mi NE 5.8 mph - N/A   Clear
1:51 AM 25.0 °F - 19.9 °F 81% 30.01 in 10.0 mi Calm Calm - N/A   Clear
2:51 AM 24.1 °F - 19.9 °F 84% 30.00 in 10.0 mi Calm Calm - N/A   Scattered Clouds
3:51 AM 21.9 °F - 19.0 °F 89% 30.01 in 10.0 mi Calm Calm - N/A   Scattered Clouds
4:51 AM 21.9 °F 17.2 °F 19.9 °F 92% 30.00 in 10.0 mi ENE 3.5 mph - N/A   Scattered Clouds
5:51 AM 23.0 °F 18.4 °F 19.0 °F 85% 29.99 in 10.0 mi East 3.5 mph - N/A   Partly Cloudy
6:51 AM 24.1 °F 17.0 °F 19.9 °F 84% 29.99 in 10.0 mi ENE 5.8 mph - N/A   Mostly Cloudy
7:51 AM 24.1 °F 17.0 °F 19.9 °F 84% 29.99 in 10.0 mi East 5.8 mph - N/A   Mostly Cloudy
8:51 AM 26.1 °F 17.6 °F 21.9 °F 84% 29.98 in 10.0 mi East 8.1 mph - N/A   Overcast
9:51 AM 28.0 °F 17.5 °F 21.9 °F 78% 29.95 in 10.0 mi ENE 12.7 mph - N/A   Overcast
10:51 AM 30.0 °F 19.5 °F 21.9 °F 72% 29.90 in 10.0 mi ENE 13.8 mph - N/A   Overcast
11:51 AM 32.0 °F 21.2 °F 21.0 °F 64% 29.86 in 10.0 mi ENE 16.1 mph - N/A   Overcast
12:51 PM 34.0 °F 24.2 °F 19.9 °F 56% 29.81 in 10.0 mi ENE 15.0 mph 21.9 mph N/A   Overcast
1:51 PM 36.0 °F 27.5 °F 21.0 °F 55% 29.78 in 10.0 mi NNE 12.7 mph - N/A   Overcast
2:51 PM 36.0 °F 28.0 °F 19.9 °F 52% 29.77 in 10.0 mi ENE 11.5 mph - N/A   Overcast
3:51 PM 36.0 °F 29.0 °F 19.9 °F 52% 29.74 in 10.0 mi NE 9.2 mph - N/A   Overcast
4:51 PM 36.0 °F 29.0 °F 19.9 °F 52% 29.70 in 10.0 mi NE 9.2 mph - N/A   Overcast
5:51 PM 36.0 °F 27.1 °F 19.9 °F 52% 29.65 in 10.0 mi NE 13.8 mph - N/A   Overcast
6:51 PM 36.0 °F 28.5 °F 19.9 °F 52% 29.62 in 10.0 mi NE 10.4 mph - N/A   Overcast
7:51 PM 35.1 °F 28.6 °F 21.9 °F 59% 29.62 in 10.0 mi NE 8.1 mph - N/A   Overcast
8:51 PM 35.1 °F 27.9 °F 21.0 °F 57% 29.61 in 10.0 mi ENE 9.2 mph - N/A   Overcast
9:51 PM 35.1 °F 28.6 °F 21.9 °F 59% 29.59 in 10.0 mi ENE 8.1 mph - N/A   Overcast
10:51 PM 35.1 °F 27.9 °F 21.0 °F 57% 29.56 in 10.0 mi East 9.2 mph - N/A   Overcast
11:51 PM 36.0 °F 27.1 °F 21.0 °F 55% 29.54 in 10.0 mi East 13.8 mph - N/A   Overcast